Climatologie pour Saint-Brevin les Pins
Jour • Résumé pour avril 21, 2017 Système :  Métrique    Anglais   Mixte
« - 1 jour
+ 1 jour »
Jour Semaine Mois Année Personnalisé
  Maximum : Minimum : Moyenne :
Température sous abri : 19.8 °C 2.1 °C 10.8 °C
Point de rosée : 3.7 °C -1.3 °C 1.1 °C
Humidité : 83 % 25 % 55 %
Vitesse du vent : 20.9 km/h 0.0 km/h 5.9 km/h
Rafale : 27.4 km/h - -
Direction :- - ENE
Pression : 1032.4 hPa 1027.7 hPa -
Précipitations : 0.0 mm    
Historical Graphs
 
 
Tableau de données pour avril 21, 2017
Heure Tempé Pt rosée Pression Vent Vitesse Rafale Humidité Taux pluie (/hr) Soleil
00:00 7.2 °C 0.4 °C 1032.1 hPa ENE 3.2 km/h 9.7 km/h 62 % 0.0 mm 0 W/m2
00:10 6.9 °C 0.4 °C 1032.4 hPa East 1.6 km/h 9.7 km/h 63 % 0.0 mm 0 W/m2
00:15 6.9 °C 0.4 °C 1032.1 hPa East 4.8 km/h 9.7 km/h 63 % 0.0 mm 0 W/m2
00:20 6.9 °C 0.4 °C 1032.4 hPa ENE 6.4 km/h 11.3 km/h 63 % 0.0 mm 0 W/m2
00:25 7.0 °C 0.2 °C 1032.1 hPa East 4.8 km/h 11.3 km/h 62 % 0.0 mm 0 W/m2
00:30 6.9 °C 0.4 °C 1032.1 hPa East 4.8 km/h 9.7 km/h 63 % 0.0 mm 0 W/m2
00:35 6.7 °C 0.3 °C 1032.1 hPa SE 3.2 km/h 9.7 km/h 64 % 0.0 mm 0 W/m2
00:40 6.4 °C 0.3 °C 1032.4 hPa East 3.2 km/h 9.7 km/h 65 % 0.0 mm 0 W/m2
00:45 6.2 °C 0.3 °C 1032.4 hPa East 4.8 km/h 8.0 km/h 66 % 0.0 mm 0 W/m2
00:50 6.2 °C 0.3 °C 1032.4 hPa East 4.8 km/h 8.0 km/h 66 % 0.0 mm 0 W/m2
00:55 6.3 °C 0.2 °C 1032.4 hPa East 3.2 km/h 11.3 km/h 65 % 0.0 mm 0 W/m2
01:00 6.4 °C 0.1 °C 1032.4 hPa East 3.2 km/h 11.3 km/h 64 % 0.0 mm 0 W/m2
01:05 6.3 °C 0.2 °C 1032.4 hPa ENE 3.2 km/h 11.3 km/h 65 % 0.0 mm 0 W/m2
01:10 6.0 °C 0.1 °C 1032.4 hPa ENE 1.6 km/h 11.3 km/h 66 % 0.0 mm 0 W/m2
01:15 5.8 °C 0.1 °C 1032.4 hPa ENE 6.4 km/h 8.0 km/h 67 % 0.0 mm 0 W/m2
01:20 5.6 °C 0.2 °C 1032.4 hPa ENE 1.6 km/h 11.3 km/h 68 % 0.0 mm 0 W/m2
01:25 5.8 °C 0.2 °C 1032.1 hPa ENE 4.8 km/h 11.3 km/h 67 % 0.0 mm 0 W/m2
01:35 5.9 °C 0.2 °C 1032.1 hPa Calm   9.7 km/h 67 % 0.0 mm 0 W/m2
01:40 5.9 °C 0.3 °C 1032.1 hPa ENE 3.2 km/h 8.0 km/h 67 % 0.0 mm 0 W/m2
01:45 5.7 °C 0.3 °C 1032.1 hPa East 3.2 km/h 8.0 km/h 68 % 0.0 mm 0 W/m2
01:50 5.4 °C 0.2 °C 1032.4 hPa ENE 1.6 km/h 8.0 km/h 69 % 0.0 mm 0 W/m2
01:55 5.3 °C 0.1 °C 1032.1 hPa ENE 4.8 km/h 6.4 km/h 69 % 0.0 mm 0 W/m2
02:00 5.2 °C 0.1 °C 1032.1 hPa ENE 1.6 km/h 9.7 km/h 70 % 0.0 mm 0 W/m2
02:05 5.1 °C 0.3 °C 1032.1 hPa ENE 3.2 km/h 9.7 km/h 71 % 0.0 mm 0 W/m2
02:10 5.1 °C 0.2 °C 1032.1 hPa East 3.2 km/h 8.0 km/h 71 % 0.0 mm 0 W/m2
02:15 4.8 °C 0.2 °C 1032.1 hPa East 1.6 km/h 6.4 km/h 72 % 0.0 mm 0 W/m2
02:20 4.6 °C 0.1 °C 1032.4 hPa ENE 3.2 km/h 6.4 km/h 73 % 0.0 mm 0 W/m2
02:25 4.3 °C 0.2 °C 1032.1 hPa East 3.2 km/h 6.4 km/h 75 % 0.0 mm 0 W/m2
02:30 4.1 °C 0.0 °C 1032.1 hPa ENE 3.2 km/h 6.4 km/h 75 % 0.0 mm 0 W/m2
02:35 3.9 °C 0.0 °C 1032.1 hPa ENE 3.2 km/h 6.4 km/h 76 % 0.0 mm 0 W/m2
02:40 4.2 °C 0.4 °C 1032.1 hPa East 3.2 km/h 8.0 km/h 76 % 0.0 mm 0 W/m2
02:45 4.5 °C 0.3 °C 1032.1 hPa ENE 3.2 km/h 8.0 km/h 74 % 0.0 mm 0 W/m2
02:50 4.4 °C 0.2 °C 1032.1 hPa ENE 1.6 km/h 6.4 km/h 74 % 0.0 mm 0 W/m2
02:55 4.4 °C 0.2 °C 1032.1 hPa ENE 4.8 km/h 6.4 km/h 74 % 0.0 mm 0 W/m2
03:00 4.3 °C 0.2 °C 1032.1 hPa East 3.2 km/h 8.0 km/h 75 % 0.0 mm 0 W/m2
03:05 4.4 °C 0.2 °C 1032.1 hPa East 3.2 km/h 8.0 km/h 74 % 0.0 mm 0 W/m2
03:10 4.4 °C 0.2 °C 1032.1 hPa ENE 4.8 km/h 8.0 km/h 74 % 0.0 mm 0 W/m2
03:15 4.3 °C 0.0 °C 1032.1 hPa ENE 4.8 km/h 11.3 km/h 74 % 0.0 mm 0 W/m2
03:20 4.4 °C 0.2 °C 1032.1 hPa East 1.6 km/h 11.3 km/h 74 % 0.0 mm 0 W/m2
03:25 4.2 °C 0.0 °C 1031.7 hPa East 4.8 km/h 8.0 km/h 74 % 0.0 mm 0 W/m2
03:30 4.1 °C 0.2 °C 1031.7 hPa ENE 4.8 km/h 11.3 km/h 76 % 0.0 mm 0 W/m2
03:35 4.1 °C 0.0 °C 1031.7 hPa East 6.4 km/h 11.3 km/h 75 % 0.0 mm 0 W/m2
03:40 3.9 °C 0.0 °C 1031.7 hPa East 6.4 km/h 12.9 km/h 76 % 0.0 mm 0 W/m2
03:45 3.9 °C 0.1 °C 1031.7 hPa ENE 1.6 km/h 12.9 km/h 76 % 0.0 mm 0 W/m2
03:50 3.7 °C 0.1 °C 1031.7 hPa ENE 6.4 km/h 11.3 km/h 77 % 0.0 mm 0 W/m2
03:55 3.7 °C 0.2 °C 1031.4 hPa ENE 4.8 km/h 14.5 km/h 78 % 0.0 mm 0 W/m2
04:00 3.9 °C 0.3 °C 1031.4 hPa ENE 11.3 km/h 16.1 km/h 77 % 0.0 mm 0 W/m2
04:05 4.1 °C 0.2 °C 1031.4 hPa ENE 6.4 km/h 16.1 km/h 76 % 0.0 mm 0 W/m2
04:10 4.1 °C 0.3 °C 1031.4 hPa ENE 6.4 km/h 12.9 km/h 76 % 0.0 mm 0 W/m2
04:15 4.2 °C 0.1 °C 1031.4 hPa ENE 3.2 km/h 16.1 km/h 75 % 0.0 mm 0 W/m2
04:20 4.1 °C 0.1 °C 1031.4 hPa ENE 6.4 km/h 16.1 km/h 75 % 0.0 mm 0 W/m2
04:25 4.1 °C 0.1 °C 1031.4 hPa East 8.0 km/h 12.9 km/h 75 % 0.0 mm 0 W/m2
04:30 4.1 °C 0.0 °C 1031.4 hPa ENE 3.2 km/h 12.9 km/h 75 % 0.0 mm 0 W/m2
04:35 4.1 °C 0.1 °C 1031.4 hPa ENE 4.8 km/h 12.9 km/h 75 % 0.0 mm 0 W/m2
04:40 4.1 °C 0.1 °C 1031.4 hPa NE 6.4 km/h 14.5 km/h 75 % 0.0 mm 0 W/m2
04:45 4.0 °C 0.0 °C 1031.4 hPa ENE 4.8 km/h 14.5 km/h 75 % 0.0 mm 0 W/m2
04:50 3.9 °C -0.1 °C 1031.4 hPa ENE 12.9 km/h 12.9 km/h 75 % 0.0 mm 0 W/m2
04:55 3.7 °C -0.1 °C 1031.4 hPa ENE 3.2 km/h 12.9 km/h 76 % 0.0 mm 0 W/m2
05:00 3.6 °C 0.0 °C 1031.4 hPa ENE 8.0 km/h 12.9 km/h 77 % 0.0 mm 0 W/m2
05:05 3.6 °C 0.0 °C 1031.4 hPa ENE 3.2 km/h 12.9 km/h 77 % 0.0 mm 0 W/m2
05:10 3.7 °C 0.0 °C 1031.4 hPa East 6.4 km/h 14.5 km/h 77 % 0.0 mm 0 W/m2
05:15 3.7 °C -0.1 °C 1031.4 hPa ENE 6.4 km/h 14.5 km/h 76 % 0.0 mm 0 W/m2
05:20 3.7 °C -0.1 °C 1031.4 hPa ENE 4.8 km/h 14.5 km/h 76 % 0.0 mm 0 W/m2
05:25 3.7 °C -0.2 °C 1031.4 hPa East 4.8 km/h 14.5 km/h 76 % 0.0 mm 0 W/m2
05:30 3.6 °C -0.1 °C 1031.0 hPa East 3.2 km/h 11.3 km/h 77 % 0.0 mm 0 W/m2
05:35 3.6 °C 0.0 °C 1031.0 hPa East 11.3 km/h 12.9 km/h 77 % 0.0 mm 0 W/m2
05:40 3.6 °C -0.1 °C 1031.0 hPa East 9.7 km/h 12.9 km/h 77 % 0.0 mm 0 W/m2
05:45 3.4 °C -0.2 °C 1031.0 hPa ENE 8.0 km/h 12.9 km/h 77 % 0.0 mm 0 W/m2
05:50 3.3 °C -0.4 °C 1031.0 hPa ENE 3.2 km/h 12.9 km/h 77 % 0.0 mm 0 W/m2
05:55 3.3 °C -0.2 °C 1031.0 hPa ENE 1.6 km/h 11.3 km/h 78 % 0.0 mm 0 W/m2
06:00 3.1 °C -0.4 °C 1031.0 hPa NE 3.2 km/h 11.3 km/h 78 % 0.0 mm 0 W/m2
06:05 3.0 °C -0.3 °C 1031.0 hPa NE 4.8 km/h 11.3 km/h 79 % 0.0 mm 0 W/m2
06:10 3.1 °C -0.2 °C 1031.0 hPa ENE 3.2 km/h 12.9 km/h 79 % 0.0 mm 0 W/m2
06:15 3.0 °C -0.3 °C 1031.0 hPa East 1.6 km/h 12.9 km/h 79 % 0.0 mm 0 W/m2
06:20 2.8 °C -0.3 °C 1031.0 hPa ENE 3.2 km/h 8.0 km/h 80 % 0.0 mm 0 W/m2
06:30 2.7 °C -0.3 °C 1031.0 hPa NE 4.8 km/h 12.9 km/h 81 % 0.0 mm 0 W/m2
06:35 2.7 °C -0.4 °C 1031.0 hPa ENE 3.2 km/h 12.9 km/h 80 % 0.0 mm 0 W/m2
06:40 2.7 °C -0.4 °C 1031.0 hPa ENE 4.8 km/h 12.9 km/h 80 % 0.0 mm 0 W/m2
06:45 2.7 °C -0.4 °C 1031.4 hPa ENE 1.6 km/h 11.3 km/h 80 % 0.0 mm 0 W/m2
06:50 2.5 °C -0.6 °C 1031.4 hPa NNE 3.2 km/h 11.3 km/h 80 % 0.0 mm 0 W/m2
06:55 2.4 °C -0.7 °C 1031.4 hPa NNE 1.6 km/h 8.0 km/h 80 % 0.0 mm 0 W/m2
07:00 2.2 °C -0.7 °C 1031.4 hPa Calm   6.4 km/h 81 % 0.0 mm 0 W/m2
07:05 2.2 °C -0.7 °C 1031.4 hPa Calm   8.0 km/h 81 % 0.0 mm 0 W/m2
07:10 2.2 °C -0.5 °C 1031.4 hPa NNE 3.2 km/h 8.0 km/h 82 % 0.0 mm 5 W/m2
07:15 2.2 °C -0.6 °C 1031.4 hPa ENE 4.8 km/h 9.7 km/h 82 % 0.0 mm 7 W/m2
07:20 2.1 °C -0.5 °C 1031.4 hPa Calm   9.7 km/h 83 % 0.0 mm 9 W/m2
07:25 2.3 °C -0.3 °C 1031.4 hPa Calm   9.7 km/h 83 % 0.0 mm 12 W/m2
07:30 2.4 °C -0.2 °C 1031.7 hPa ENE 4.8 km/h 8.0 km/h 83 % 0.0 mm 14 W/m2
07:35 2.3 °C -0.3 °C 1031.7 hPa Calm   8.0 km/h 83 % 0.0 mm 18 W/m2
07:40 2.4 °C -0.2 °C 1031.7 hPa ENE 1.6 km/h 8.0 km/h 83 % 0.0 mm 21 W/m2
07:45 2.4 °C -0.2 °C 1031.7 hPa North 3.2 km/h 9.7 km/h 83 % 0.0 mm 23 W/m2
07:55 3.1 °C 0.1 °C 1031.7 hPa ENE 1.6 km/h 8.0 km/h 81 % 0.0 mm 28 W/m2
08:00 3.0 °C 0.1 °C 1031.7 hPa Calm   8.0 km/h 81 % 0.0 mm 30 W/m2
08:05 3.1 °C 0.2 °C 1031.7 hPa ENE 6.4 km/h 8.0 km/h 81 % 0.0 mm 32 W/m2
08:10 3.3 °C 0.2 °C 1031.7 hPa East 6.4 km/h 11.3 km/h 80 % 0.0 mm 33 W/m2
08:15 3.6 °C 0.3 °C 1031.7 hPa East 8.0 km/h 11.3 km/h 79 % 0.0 mm 35 W/m2
08:20 3.7 °C 0.2 °C 1031.7 hPa ENE 6.4 km/h 11.3 km/h 78 % 0.0 mm 37 W/m2
08:25 3.8 °C 0.3 °C 1031.7 hPa ENE 4.8 km/h 11.3 km/h 78 % 0.0 mm 120 W/m2
08:30 4.1 °C 0.6 °C 1031.7 hPa ENE 8.0 km/h 11.3 km/h 78 % 0.0 mm 167 W/m2
08:35 4.3 °C 0.7 °C 1031.7 hPa NE 4.8 km/h 11.3 km/h 77 % 0.0 mm 185 W/m2
08:40 4.8 °C 0.7 °C 1031.7 hPa ENE 11.3 km/h 11.3 km/h 75 % 0.0 mm 204 W/m2
08:45 5.0 °C 0.7 °C 1031.7 hPa ENE 3.2 km/h 11.3 km/h 74 % 0.0 mm 221 W/m2
08:50 5.4 °C 1.1 °C 1031.7 hPa Calm   11.3 km/h 74 % 0.0 mm 239 W/m2
08:55 5.7 °C 1.0 °C 1032.1 hPa ENE 3.2 km/h 8.0 km/h 72 % 0.0 mm 253 W/m2
09:00 5.9 °C 1.2 °C 1032.1 hPa ENE 4.8 km/h 11.3 km/h 72 % 0.0 mm 269 W/m2
09:05 6.2 °C 1.3 °C 1032.1 hPa Calm   12.9 km/h 71 % 0.0 mm 285 W/m2
09:10 6.6 °C 1.5 °C 1032.1 hPa ENE 4.8 km/h 14.5 km/h 70 % 0.0 mm 301 W/m2
09:15 6.9 °C 1.4 °C 1032.1 hPa ENE 3.2 km/h 14.5 km/h 68 % 0.0 mm 316 W/m2
09:20 7.2 °C 1.5 °C 1032.1 hPa East 6.4 km/h 12.9 km/h 67 % 0.0 mm 332 W/m2
09:25 7.6 °C 2.1 °C 1031.7 hPa East 11.3 km/h 12.9 km/h 68 % 0.0 mm 348 W/m2
09:30 7.9 °C 1.7 °C 1032.1 hPa East 14.5 km/h 14.5 km/h 65 % 0.0 mm 360 W/m2
09:35 8.2 °C 2.0 °C 1032.1 hPa ESE 9.7 km/h 14.5 km/h 65 % 0.0 mm 378 W/m2
09:40 8.5 °C 2.1 °C 1032.1 hPa East 8.0 km/h 16.1 km/h 64 % 0.0 mm 392 W/m2
09:45 8.7 °C 2.0 °C 1032.1 hPa ENE 9.7 km/h 16.1 km/h 63 % 0.0 mm 408 W/m2
09:50 8.8 °C 1.7 °C 1032.1 hPa NE 8.0 km/h 16.1 km/h 61 % 0.0 mm 422 W/m2
09:55 9.2 °C 1.8 °C 1032.1 hPa East 8.0 km/h 16.1 km/h 60 % 0.0 mm 438 W/m2
10:00 9.4 °C 2.0 °C 1032.1 hPa ESE 8.0 km/h 12.9 km/h 60 % 0.0 mm 454 W/m2
10:05 9.6 °C 2.2 °C 1032.1 hPa ENE 8.0 km/h 14.5 km/h 60 % 0.0 mm 466 W/m2
10:10 9.8 °C 1.9 °C 1032.1 hPa ESE 6.4 km/h 14.5 km/h 58 % 0.0 mm 480 W/m2
10:15 10.1 °C 2.2 °C 1032.1 hPa ENE 4.8 km/h 14.5 km/h 58 % 0.0 mm 494 W/m2
10:20 10.4 °C 2.0 °C 1032.1 hPa ESE 4.8 km/h 14.5 km/h 56 % 0.0 mm 510 W/m2
10:25 10.7 °C 2.0 °C 1032.1 hPa ENE 3.2 km/h 14.5 km/h 55 % 0.0 mm 524 W/m2
10:30 11.2 °C 3.3 °C 1032.1 hPa ENE 3.2 km/h 14.5 km/h 58 % 0.0 mm 538 W/m2
10:35 11.3 °C 2.6 °C 1032.1 hPa ENE 1.6 km/h 11.3 km/h 55 % 0.0 mm 550 W/m2
10:40 11.3 °C 1.5 °C 1032.1 hPa ESE 12.9 km/h 12.9 km/h 51 % 0.0 mm 564 W/m2
10:45 11.7 °C 3.2 °C 1032.1 hPa ENE 6.4 km/h 12.9 km/h 56 % 0.0 mm 577 W/m2
10:50 11.9 °C 2.6 °C 1032.1 hPa NE 1.6 km/h 12.9 km/h 53 % 0.0 mm 589 W/m2
10:55 12.1 °C 2.5 °C 1032.1 hPa ENE 3.2 km/h 17.7 km/h 52 % 0.0 mm 603 W/m2
11:00 12.1 °C 1.9 °C 1032.1 hPa NE 6.4 km/h 17.7 km/h 50 % 0.0 mm 613 W/m2
11:05 12.4 °C 2.6 °C 1032.1 hPa ENE 4.8 km/h 17.7 km/h 51 % 0.0 mm 624 W/m2
11:10 12.3 °C 2.5 °C 1032.1 hPa East 8.0 km/h 17.7 km/h 51 % 0.0 mm 638 W/m2
11:15 12.7 °C 2.5 °C 1032.1 hPa ENE 16.1 km/h 22.5 km/h 50 % 0.0 mm 649 W/m2
11:20 12.6 °C 2.4 °C 1032.1 hPa East 12.9 km/h 22.5 km/h 50 % 0.0 mm 663 W/m2
11:25 12.7 °C 2.2 °C 1032.1 hPa East 12.9 km/h 19.3 km/h 49 % 0.0 mm 675 W/m2
11:30 12.9 °C 2.5 °C 1032.1 hPa East 11.3 km/h 19.3 km/h 49 % 0.0 mm 687 W/m2
11:35 13.4 °C 2.9 °C 1032.1 hPa ENE 8.0 km/h 17.7 km/h 49 % 0.0 mm 696 W/m2
11:40 13.7 °C 2.5 °C 1031.7 hPa East 11.3 km/h 20.9 km/h 47 % 0.0 mm 705 W/m2
11:45 13.9 °C 3.1 °C 1031.7 hPa East 9.7 km/h 20.9 km/h 48 % 0.0 mm 715 W/m2
11:50 13.9 °C 3.3 °C 1031.7 hPa East 9.7 km/h 17.7 km/h 49 % 0.0 mm 722 W/m2
11:55 14.2 °C 3.0 °C 1031.7 hPa ENE 19.3 km/h 20.9 km/h 47 % 0.0 mm 731 W/m2
12:00 14.1 °C 2.0 °C 1031.7 hPa East 9.7 km/h 22.5 km/h 44 % 0.0 mm 737 W/m2
12:05 14.4 °C 3.3 °C 1031.7 hPa East 14.5 km/h 24.1 km/h 47 % 0.0 mm 749 W/m2
12:10 14.6 °C 1.8 °C 1031.7 hPa East 20.9 km/h 27.4 km/h 42 % 0.0 mm 759 W/m2
12:15 14.8 °C 2.7 °C 1031.7 hPa East 8.0 km/h 27.4 km/h 44 % 0.0 mm 765 W/m2
12:20 15.1 °C 1.5 °C 1031.7 hPa ENE 8.0 km/h 24.1 km/h 40 % 0.0 mm 768 W/m2
12:25 14.9 °C 3.1 °C 1031.7 hPa East 12.9 km/h 24.1 km/h 45 % 0.0 mm 779 W/m2
12:30 15.2 °C 2.4 °C 1031.4 hPa East 11.3 km/h 24.1 km/h 42 % 0.0 mm 788 W/m2
12:35 15.4 °C 1.8 °C 1031.7 hPa East 17.7 km/h 22.5 km/h 40 % 0.0 mm 793 W/m2
12:40 15.5 °C 1.6 °C 1031.4 hPa ESE 8.0 km/h 22.5 km/h 39 % 0.0 mm 798 W/m2
12:45 15.3 °C 1.7 °C 1031.4 hPa ESE 8.0 km/h 22.5 km/h 40 % 0.0 mm 807 W/m2
12:50 15.6 °C 2.4 °C 1031.4 hPa ESE 6.4 km/h 19.3 km/h 41 % 0.0 mm 810 W/m2
12:55 15.8 °C 1.5 °C 1031.4 hPa East 16.1 km/h 20.9 km/h 38 % 0.0 mm 812 W/m2
13:00 15.8 °C 2.9 °C 1031.4 hPa ESE 12.9 km/h 20.9 km/h 42 % 0.0 mm 817 W/m2
13:05 16.2 °C 3.2 °C 1031.4 hPa ENE 11.3 km/h 20.9 km/h 42 % 0.0 mm 824 W/m2
13:10 16.4 °C 1.7 °C 1031.4 hPa East 8.0 km/h 19.3 km/h 37 % 0.0 mm 826 W/m2
13:15 16.4 °C 2.8 °C 1031.4 hPa ENE 4.8 km/h 19.3 km/h 40 % 0.0 mm 830 W/m2
13:20 16.8 °C 3.5 °C 1031.4 hPa ESE 9.7 km/h 17.7 km/h 41 % 0.0 mm 835 W/m2
13:25 16.8 °C 2.4 °C 1031.0 hPa East 20.9 km/h 20.9 km/h 38 % 0.0 mm 835 W/m2
13:30 16.7 °C 1.9 °C 1031.0 hPa ENE 8.0 km/h 20.9 km/h 37 % 0.0 mm 835 W/m2
13:35 17.1 °C 3.7 °C 1031.0 hPa ESE 14.5 km/h 20.9 km/h 41 % 0.0 mm 838 W/m2
13:40 17.1 °C 1.9 °C 1031.0 hPa ESE 3.2 km/h 19.3 km/h 36 % 0.0 mm 844 W/m2
13:45 17.3 °C 2.4 °C 1031.0 hPa SE 12.9 km/h 19.3 km/h 37 % 0.0 mm 847 W/m2
13:50 17.3 °C 2.1 °C 1030.7 hPa ENE 3.2 km/h 16.1 km/h 36 % 0.0 mm 844 W/m2
13:55 17.3 °C 2.1 °C 1030.7 hPa East 9.7 km/h 17.7 km/h 36 % 0.0 mm 846 W/m2
14:00 17.4 °C 1.4 °C 1030.7 hPa East 9.7 km/h 22.5 km/h 34 % 0.0 mm 847 W/m2
14:05 17.4 °C 3.3 °C 1030.7 hPa East 11.3 km/h 22.5 km/h 39 % 0.0 mm 847 W/m2
14:10 17.7 °C 2.4 °C 1030.7 hPa NNE 8.0 km/h 24.1 km/h 36 % 0.0 mm 838 W/m2
14:15 17.9 °C 2.2 °C 1030.7 hPa East 16.1 km/h 24.1 km/h 35 % 0.0 mm 846 W/m2
14:20 18.2 °C 2.1 °C 1030.4 hPa East 12.9 km/h 20.9 km/h 34 % 0.0 mm 840 W/m2
14:25 18.0 °C 1.5 °C 1030.4 hPa East 4.8 km/h 20.9 km/h 33 % 0.0 mm 838 W/m2
14:30 18.2 °C 2.0 °C 1030.4 hPa ESE 14.5 km/h 20.9 km/h 34 % 0.0 mm 842 W/m2
14:35 18.3 °C 1.7 °C 1030.4 hPa ENE 17.7 km/h 20.9 km/h 33 % 0.0 mm 831 W/m2
14:40 18.7 °C 3.3 °C 1030.4 hPa ENE 14.5 km/h 20.9 km/h 36 % 0.0 mm 831 W/m2
14:45 18.5 °C 1.9 °C 1030.4 hPa ENE 8.0 km/h 19.3 km/h 33 % 0.0 mm 821 W/m2
14:50 18.7 °C 2.5 °C 1030.4 hPa East 12.9 km/h 20.9 km/h 34 % 0.0 mm 823 W/m2
14:55 18.7 °C 2.1 °C 1030.0 hPa ENE 4.8 km/h 20.9 km/h 33 % 0.0 mm 814 W/m2
15:00 18.6 °C 2.4 °C 1030.0 hPa ENE 11.3 km/h 17.7 km/h 34 % 0.0 mm 814 W/m2
15:05 18.7 °C 2.1 °C 1030.0 hPa NE 6.4 km/h 22.5 km/h 33 % 0.0 mm 809 W/m2
15:10 18.6 °C 1.5 °C 1030.0 hPa East 8.0 km/h 22.5 km/h 32 % 0.0 mm 805 W/m2
15:15 18.6 °C 2.0 °C 1030.0 hPa ENE 14.5 km/h 22.5 km/h 33 % 0.0 mm 800 W/m2
15:20 18.8 °C 0.9 °C 1030.0 hPa ENE 3.2 km/h 22.5 km/h 30 % 0.0 mm 795 W/m2
15:25 18.8 °C 1.3 °C 1030.0 hPa ENE 6.4 km/h 22.5 km/h 31 % 0.0 mm 786 W/m2
15:30 18.8 °C 2.6 °C 1029.7 hPa ESE 4.8 km/h 22.5 km/h 34 % 0.0 mm 784 W/m2
15:35 19.3 °C 0.8 °C 1029.7 hPa ENE 4.8 km/h 19.3 km/h 29 % 0.0 mm 772 W/m2
15:40 19.6 °C 1.5 °C 1029.7 hPa Calm   16.1 km/h 30 % 0.0 mm 768 W/m2
15:45 19.6 °C 2.8 °C 1029.7 hPa ESE 11.3 km/h 16.1 km/h 33 % 0.0 mm 761 W/m2
15:50 19.6 °C 1.5 °C 1029.7 hPa ESE 8.0 km/h 16.1 km/h 30 % 0.0 mm 747 W/m2
15:55 19.2 °C 2.5 °C 1029.7 hPa ESE 14.5 km/h 20.9 km/h 33 % 0.0 mm 740 W/m2
16:00 19.3 °C 0.3 °C 1029.7 hPa NNE 6.4 km/h 20.9 km/h 28 % 0.0 mm 737 W/m2
16:05 19.8 °C 2.1 °C 1029.3 hPa ENE 16.1 km/h 20.9 km/h 31 % 0.0 mm 719 W/m2
16:10 19.6 °C 0.1 °C 1029.3 hPa ENE 12.9 km/h 20.9 km/h 27 % 0.0 mm 717 W/m2
16:15 19.7 °C 0.1 °C 1029.3 hPa NE 4.8 km/h 25.7 km/h 27 % 0.0 mm 705 W/m2
16:20 19.6 °C 1.5 °C 1029.3 hPa ENE 14.5 km/h 25.7 km/h 30 % 0.0 mm 701 W/m2
16:25 19.4 °C -0.1 °C 1029.3 hPa NNE 6.4 km/h 22.5 km/h 27 % 0.0 mm 689 W/m2
16:30 19.7 °C 1.1 °C 1029.3 hPa ENE 8.0 km/h 20.9 km/h 29 % 0.0 mm 679 W/m2
16:40 19.2 °C -1.3 °C 1029.0 hPa ESE 16.1 km/h 22.5 km/h 25 % 0.0 mm 656 W/m2
16:45 19.4 °C 0.4 °C 1029.0 hPa East 14.5 km/h 20.9 km/h 28 % 0.0 mm 645 W/m2
16:50 19.3 °C 0.8 °C 1029.0 hPa East 12.9 km/h 20.9 km/h 29 % 0.0 mm 631 W/m2
16:55 19.3 °C -0.7 °C 1028.7 hPa East 9.7 km/h 19.3 km/h 26 % 0.0 mm 622 W/m2
17:00 19.4 °C -0.6 °C 1028.7 hPa East 8.0 km/h 17.7 km/h 26 % 0.0 mm 613 W/m2
17:05 19.2 °C 1.2 °C 1028.7 hPa East 12.9 km/h 20.9 km/h 30 % 0.0 mm 603 W/m2
17:10 19.2 °C -0.3 °C 1028.7 hPa East 11.3 km/h 20.9 km/h 27 % 0.0 mm 589 W/m2
17:15 19.4 °C -0.1 °C 1028.7 hPa East 12.9 km/h 19.3 km/h 27 % 0.0 mm 573 W/m2
17:25 19.3 °C 0.8 °C 1028.7 hPa NE 8.0 km/h 17.7 km/h 29 % 0.0 mm 547 W/m2
17:30 19.2 °C 0.7 °C 1028.3 hPa NE 6.4 km/h 25.7 km/h 29 % 0.0 mm 534 W/m2
17:35 19.2 °C -0.3 °C 1028.3 hPa ENE 8.0 km/h 25.7 km/h 27 % 0.0 mm 522 W/m2
17:40 18.8 °C -1.1 °C 1028.3 hPa SE 11.3 km/h 22.5 km/h 26 % 0.0 mm 510 W/m2
17:45 18.9 °C 0.0 °C 1028.3 hPa East 3.2 km/h 22.5 km/h 28 % 0.0 mm 496 W/m2
17:50 19.1 °C 0.6 °C 1028.3 hPa ESE 4.8 km/h 20.9 km/h 29 % 0.0 mm 483 W/m2
17:55 19.2 °C 1.6 °C 1028.3 hPa ESE 14.5 km/h 14.5 km/h 31 % 0.0 mm 466 W/m2
18:00 19.2 °C 0.2 °C 1028.3 hPa East 4.8 km/h 19.3 km/h 28 % 0.0 mm 452 W/m2
18:05 18.9 °C -0.5 °C 1028.3 hPa East 4.8 km/h 25.7 km/h 27 % 0.0 mm 441 W/m2
18:10 19.0 °C -0.4 °C 1028.3 hPa ENE 1.6 km/h 25.7 km/h 27 % 0.0 mm 425 W/m2
18:15 18.9 °C 0.5 °C 1028.3 hPa East 9.7 km/h 17.7 km/h 29 % 0.0 mm 410 W/m2
18:20 18.9 °C 1.0 °C 1028.3 hPa East 12.9 km/h 19.3 km/h 30 % 0.0 mm 392 W/m2
18:25 18.8 °C -0.6 °C 1028.3 hPa ENE 4.8 km/h 19.3 km/h 27 % 0.0 mm 381 W/m2
18:30 18.8 °C 0.9 °C 1028.3 hPa North 8.0 km/h 17.7 km/h 30 % 0.0 mm 364 W/m2
18:35 18.7 °C 0.3 °C 1028.0 hPa NE 4.8 km/h 20.9 km/h 29 % 0.0 mm 350 W/m2
18:40 18.5 °C 0.1 °C 1028.0 hPa East 6.4 km/h 20.9 km/h 29 % 0.0 mm 336 W/m2
18:45 18.7 °C -0.2 °C 1028.0 hPa ENE 12.9 km/h 19.3 km/h 28 % 0.0 mm 320 W/m2
18:50 18.5 °C 0.1 °C 1028.0 hPa ESE 4.8 km/h 19.3 km/h 29 % 0.0 mm 306 W/m2
18:55 18.5 °C 0.6 °C 1028.0 hPa East 8.0 km/h 16.1 km/h 30 % 0.0 mm 294 W/m2
19:00 18.4 °C 0.5 °C 1028.0 hPa NE 6.4 km/h 16.1 km/h 30 % 0.0 mm 278 W/m2
19:05 18.4 °C 0.0 °C 1028.0 hPa East 3.2 km/h 17.7 km/h 29 % 0.0 mm 264 W/m2
19:10 18.2 °C 0.3 °C 1028.0 hPa ENE 8.0 km/h 17.7 km/h 30 % 0.0 mm 248 W/m2
19:15 18.1 °C 0.2 °C 1028.0 hPa Calm   16.1 km/h 30 % 0.0 mm 176 W/m2
19:20 17.8 °C 0.0 °C 1028.0 hPa ENE 4.8 km/h 16.1 km/h 30 % 0.0 mm 128 W/m2
19:25 17.8 °C 0.0 °C 1028.0 hPa East 9.7 km/h 17.7 km/h 30 % 0.0 mm 56 W/m2
19:30 17.6 °C -0.2 °C 1028.0 hPa East 11.3 km/h 17.7 km/h 30 % 0.0 mm 72 W/m2
19:35 17.4 °C 0.6 °C 1028.0 hPa East 12.9 km/h 17.7 km/h 32 % 0.0 mm 97 W/m2
19:40 17.3 °C 0.5 °C 1027.7 hPa NE 3.2 km/h 17.7 km/h 32 % 0.0 mm 102 W/m2
19:45 17.1 °C 0.7 °C 1027.7 hPa NE 3.2 km/h 16.1 km/h 33 % 0.0 mm 47 W/m2
19:50 17.0 °C 1.0 °C 1027.7 hPa ENE 4.8 km/h 16.1 km/h 34 % 0.0 mm 121 W/m2
19:55 16.8 °C 0.4 °C 1027.7 hPa ENE 4.8 km/h 16.1 km/h 33 % 0.0 mm 74 W/m2
20:00 16.7 °C 0.3 °C 1027.7 hPa East 8.0 km/h 14.5 km/h 33 % 0.0 mm 98 W/m2
20:05 16.5 °C 0.2 °C 1027.7 hPa NE 4.8 km/h 14.5 km/h 33 % 0.0 mm 83 W/m2
20:10 16.3 °C 0.4 °C 1027.7 hPa NE 4.8 km/h 14.5 km/h 34 % 0.0 mm 54 W/m2
20:15 16.1 °C 0.6 °C 1027.7 hPa East 4.8 km/h 14.5 km/h 35 % 0.0 mm 32 W/m2
20:20 15.9 °C 0.8 °C 1028.0 hPa ENE 6.4 km/h 12.9 km/h 36 % 0.0 mm 28 W/m2
20:25 15.4 °C 1.9 °C 1028.0 hPa ENE 1.6 km/h 11.3 km/h 40 % 0.0 mm 26 W/m2
20:35 14.8 °C 1.3 °C 1028.0 hPa NE 3.2 km/h 8.0 km/h 40 % 0.0 mm 19 W/m2
20:40 14.6 °C 1.4 °C 1028.0 hPa ENE 3.2 km/h 8.0 km/h 41 % 0.0 mm 18 W/m2
20:45 14.2 °C 1.5 °C 1028.0 hPa NE 4.8 km/h 8.0 km/h 42 % 0.0 mm 14 W/m2
20:50 14.2 °C 1.4 °C 1028.0 hPa ENE 1.6 km/h 8.0 km/h 42 % 0.0 mm 12 W/m2
20:55 13.9 °C 1.5 °C 1027.7 hPa ENE 3.2 km/h 8.0 km/h 43 % 0.0 mm 9 W/m2
21:00 13.7 °C 1.7 °C 1027.7 hPa NE 3.2 km/h 8.0 km/h 44 % 0.0 mm 7 W/m2
21:05 13.2 °C 1.8 °C 1027.7 hPa ENE 3.2 km/h 6.4 km/h 46 % 0.0 mm 0 W/m2
21:10 12.7 °C 1.9 °C 1027.7 hPa Calm   4.8 km/h 48 % 0.0 mm 0 W/m2
21:15 12.1 °C 2.3 °C 1027.7 hPa Calm   4.8 km/h 51 % 0.0 mm 0 W/m2
21:20 11.7 °C 2.4 °C 1028.0 hPa Calm   3.2 km/h 53 % 0.0 mm 0 W/m2
21:25 11.3 °C 2.0 °C 1028.0 hPa Calm   4.8 km/h 53 % 0.0 mm 0 W/m2
21:30 11.1 °C 2.3 °C 1028.0 hPa Calm   4.8 km/h 55 % 0.0 mm 0 W/m2
21:35 10.7 °C 2.5 °C 1028.0 hPa Calm   4.8 km/h 57 % 0.0 mm 0 W/m2
21:40 10.5 °C 2.3 °C 1028.0 hPa NE 1.6 km/h 4.8 km/h 57 % 0.0 mm 0 W/m2
21:45 10.2 °C 2.6 °C 1028.0 hPa NE 1.6 km/h 3.2 km/h 59 % 0.0 mm 0 W/m2
21:50 10.0 °C 2.6 °C 1028.0 hPa Calm   1.6 km/h 60 % 0.0 mm 0 W/m2
21:55 9.9 °C 2.8 °C 1028.0 hPa Calm   1.6 km/h 61 % 0.0 mm 0 W/m2
22:00 9.8 °C 3.3 °C 1028.0 hPa Calm   3.2 km/h 64 % 0.0 mm 0 W/m2
22:05 9.4 °C 3.0 °C 1028.0 hPa Calm   3.2 km/h 64 % 0.0 mm 0 W/m2
22:10 9.3 °C 2.6 °C 1028.0 hPa Calm   3.2 km/h 63 % 0.0 mm 0 W/m2
22:15 9.3 °C 2.8 °C 1028.0 hPa Calm   3.2 km/h 64 % 0.0 mm 0 W/m2
22:20 9.2 °C 2.5 °C 1028.0 hPa Calm   3.2 km/h 63 % 0.0 mm 0 W/m2
22:25 9.1 °C 2.4 °C 1028.0 hPa NE 1.6 km/h 4.8 km/h 63 % 0.0 mm 0 W/m2
22:30 9.1 °C 2.7 °C 1028.0 hPa ENE 3.2 km/h 4.8 km/h 64 % 0.0 mm 0 W/m2
22:35 9.2 °C 2.5 °C 1028.0 hPa NNE 8.0 km/h 8.0 km/h 63 % 0.0 mm 0 W/m2
22:40 9.2 °C 2.7 °C 1028.0 hPa Calm   8.0 km/h 64 % 0.0 mm 0 W/m2
22:45 9.2 °C 2.5 °C 1028.3 hPa Calm   8.0 km/h 63 % 0.0 mm 0 W/m2
22:50 8.9 °C 2.5 °C 1028.3 hPa Calm   3.2 km/h 64 % 0.0 mm 0 W/m2
22:55 8.8 °C 2.4 °C 1028.0 hPa Calm   4.8 km/h 64 % 0.0 mm 0 W/m2
23:00 8.6 °C 2.4 °C 1028.3 hPa Calm   4.8 km/h 65 % 0.0 mm 0 W/m2
23:05 8.4 °C 2.7 °C 1028.0 hPa ENE 1.6 km/h 4.8 km/h 67 % 0.0 mm 0 W/m2
23:10 8.3 °C 2.8 °C 1028.0 hPa Calm   4.8 km/h 68 % 0.0 mm 0 W/m2
23:15 8.3 °C 3.0 °C 1028.0 hPa Calm   4.8 km/h 69 % 0.0 mm 0 W/m2
23:20 8.3 °C 3.1 °C 1028.0 hPa Calm   4.8 km/h 70 % 0.0 mm 0 W/m2
23:25 8.2 °C 3.1 °C 1028.0 hPa Calm   3.2 km/h 70 % 0.0 mm 0 W/m2
23:30 8.3 °C 3.2 °C 1028.3 hPa Calm   1.6 km/h 70 % 0.0 mm 0 W/m2
23:35 8.3 °C 3.1 °C 1028.3 hPa Calm   1.6 km/h 70 % 0.0 mm 0 W/m2
23:40 8.2 °C 3.2 °C 1028.0 hPa Calm   1.6 km/h 71 % 0.0 mm 0 W/m2
23:45 8.0 °C 3.1 °C 1028.0 hPa ENE 1.6 km/h 4.8 km/h 71 % 0.0 mm 0 W/m2
23:50 8.2 °C 3.3 °C 1028.0 hPa Calm   8.0 km/h 71 % 0.0 mm 0 W/m2
23:55 8.2 °C 3.2 °C 1028.0 hPa Calm   8.0 km/h 71 % 0.0 mm 0 W/m2
Avec l'autorisation de Weather Underground - 1.75 mb